Location: Seattle
(47.6064°N, 122.3308°W)
Time: 12:16:54
(UTC-07:00)

S-56A Canister/Altair - Pass Details

Date: 06 August 2021
Orbit: 632 x 2500 km, 38.9° (Epoch: 20 September)

Event Time Altitude Azimuth Distance (km) Brightness Sun altitude
Rises 21:26:43 0° 281° (W) 6,150 13.5 -8.2°
Reaches altitude 10° 21:32:30 10° 266° (W) 5,165 12.5 -9.0°
Maximum altitude 21:41:17 19° 230° (SW) 4,317 11.5 -10.2°
Drops below altitude 10° 21:49:23 10° 192° (SSW) 4,674 11.2 -11.3°
Sets 21:54:17 0° 176° (S) 5,382 11.4 -11.9°
